Content
SEND FEEDBACK

Daily
Averages
Monthly
Summary
Germany

ZUGSPITZE, GERMANY


Home > Europe > Germany
Elevation: 9718 feet     Latitude: 47 25N     Longitude: 010 59E

WEATHER
 
SELECT A DAY
Number of Records: 320,475;   Date Range: 7/1/96 - 12/17/14
 
SHARE

PRINT THIS DATA

[ ← Previous Day ]
WEATHER ALMANAC - FEBRUARY 13, 2013
[ Next Day → ]
[ °C ]   °F
Weather ElementAverageHighLow
Temperature27.2 °F33.8 °F (12:50 pm)24.8 °F (2:50 am)
Dewpoint21.3 °F25 °F (1:00 am)19 °F (7:00 pm)
Humidity78.1 %100 % (3:50 am)49 % (1:00 pm)
Barometer30.09 in30.33 in (10:00 pm)29.92 in (12:50 am)
Wind Speed3.6 mph9.2 mph (4:50 pm)
Weather ElementAverage
Visibility4.6 mi
Wind DirectionENE (61.4 °)

Weather ElementTotal
Precipitation---
Heating Degree Days35.7 (Base 65)
Averaged from 55 records on February 13, 2013
WEATHER CONDITIONS BREAKOUT
WIND DIRECTION BREAKOUT
WEATHER BY HOUR - FEBRUARY 13, 2013
[ °C ]   °F
Local TimeTemperatureDewpointHumidityBarometerVisibilityWind DirectionWind SpeedGust SpeedPrecipitationEventsConditions
12:50 AM26.6 °F24.8 °F93 %29.92 in1.5 miVariable1.2 mphSnowSnow
1:00 AM26.0 °F25.0 °F92 %30.03 in1.0 mi°2.2 mph
1:20 AM26.6 °F24.8 °F93 %29.92 inVariable1.2 mphSnowLight Snow
1:50 AM26.6 °F23.0 °F86 %29.92 in1.9 miVariable1.2 mphSnowLight Snow
2:20 AM26.6 °F23.0 °F86 %29.95 inVariable2.3 mphSnowSnow
2:50 AM24.8 °F23.0 °F93 %29.95 in1.7 miVariable1.2 mphSnowSnow
3:20 AM24.8 °F23.0 °F93 %29.95 inWest (260°)2.3 mphSnowSnow
3:50 AM24.8 °F24.8 °F100 %29.95 in1.9 miVariable1.2 mphSnowLight Snow
4:00 AM26.0 °F24.0 °F88 %30.08 in2.0 mi°2.2 mphSnowLight Snow
4:20 AM24.8 °F23.0 °F93 %29.98 in2.5 miVariable2.3 mphSnowLight Snow
4:50 AM24.8 °F23.0 °F93 %29.98 in3.7 miVariable1.2 mphSnowLight Snow
5:20 AM26.6 °F21.2 °F80 %29.98 in4.3 miVariable2.3 mphSnowLight Snow
5:50 AM24.8 °F21.2 °F86 %29.98 in4.3 miESE (120°)3.5 mphSnowLight Snow
6:20 AM24.8 °F21.2 °F86 %29.98 in3.7 miSE (140°)2.3 mphSnowLight Snow
6:50 AM24.8 °F21.2 °F86 %30.01 in3.7 miESE (110°)2.3 mphSnowLight Snow
7:00 AM25.0 °F22.0 °F82 %30.13 in4.0 miESE (110°)2.2 mphSnowLight Snow
7:20 AM24.8 °F21.2 °F86 %30.01 in3.7 miSE (130°)2.3 mphSnowLight Snow
7:50 AM24.8 °F21.2 °F86 %30.04 in3.1 miESE (110°)3.5 mphSnowLight Snow
8:20 AM24.8 °F21.2 °F86 %30.04 in3.1 miENE (70°)4.6 mphSnowLight Snow
8:50 AM24.8 °F21.2 °F86 %30.04 in2.8 miEast (80°)4.6 mphSnowLight Snow
9:20 AM24.8 °F21.2 °F86 %30.06 in2.5 miENE (70°)3.5 mphSnowLight Snow
9:50 AM24.8 °F21.2 °F86 %30.06 in3.1 miVariable3.5 mphSnowLight Snow
10:00 AM25.0 °F22.0 °F83 %30.20 in2.0 mi°4.5 mphSnowLight Snow
10:20 AM26.6 °F23.0 °F86 %30.06 in3.1 miEast (80°)3.5 mphSnowLight Snow
10:50 AM26.6 °F23.0 °F86 %30.09 in3.7 miVariable1.2 mphSnowLight Snow
11:20 AM28.4 °F23.0 °F80 %30.09 in4.3 miNW (310°)2.3 mphSnowLight Snow
11:50 AM30.2 °F23.0 °F75 %30.09 in5.6 miVariable1.2 mphMostly Cloudy
12:20 PM30.2 °F21.2 °F69 %30.09 in6.2 miVariable1.2 mphMostly Cloudy
12:50 PM33.8 °F21.2 °F60 %30.09 in6.2 miVariable1.2 mphMostly Cloudy
1:00 PM33.0 °F21.0 °F49 %30.17 in6.0 mi°2.2 mphPartly Cloudy
1:20 PM32.0 °F21.2 °F64 %30.09 in6.2 miVariable1.2 mphMostly Cloudy
1:50 PM32.0 °F21.2 °F64 %30.06 in6.2 miVariable1.2 mphMostly Cloudy
2:20 PM32.0 °F19.4 °F60 %30.09 in6.2 miEast (80°)8.1 mphMostly Cloudy
2:50 PM30.2 °F21.2 °F69 %30.09 in6.2 miENE (70°)8.1 mphMostly Cloudy
3:20 PM30.2 °F21.2 °F69 %30.09 in6.2 miENE (60°)5.8 mphMostly Cloudy
3:50 PM30.2 °F21.2 °F69 %30.09 in6.2 miENE (60°)5.8 mphMostly Cloudy
4:00 PM31.0 °F21.0 °F54 %30.20 in9.0 miENE (60°)6.7 mphScattered Clouds
4:20 PM30.2 °F19.4 °F64 %30.12 in6.2 miENE (70°)8.1 mphMostly Cloudy
4:50 PM30.2 °F21.2 °F69 %30.12 in6.2 miENE (70°)9.2 mphMostly Cloudy
5:20 PM30.2 °F21.2 °F69 %30.12 in6.2 miENE (70°)8.1 mphMostly Cloudy
5:50 PM28.4 °F19.4 °F69 %30.15 in6.2 miENE (70°)6.9 mphMostly Cloudy
6:20 PM28.4 °F19.4 °F69 %30.15 in6.2 miENE (60°)8.1 mphMostly Cloudy
6:50 PM26.6 °F19.4 °F74 %30.15 in6.2 miENE (60°)4.6 mphScattered Clouds
7:00 PM27.0 °F19.0 °F63 %30.29 in6.0 miENE (60°)4.5 mphScattered Clouds
7:20 PM26.6 °F19.4 °F74 %30.18 in6.2 miENE (60°)5.8 mphMostly Cloudy
7:50 PM26.6 °F19.4 °F74 %30.18 in6.2 miEast (90°)3.5 mphMostly Cloudy
8:20 PM26.6 °F19.4 °F74 %30.18 in6.2 miNE (50°)3.5 mphSnowLight Snow Showers
8:50 PM26.6 °F19.4 °F74 %30.18 in5.0 miEast (80°)3.5 mphSnowLight Snow
9:20 PM26.6 °F19.4 °F74 %30.21 in4.3 miVariable2.3 mphSnowLight Snow
9:50 PM26.6 °F21.2 °F80 %30.21 in5.0 miVariable2.3 mphSnowLight Snow
10:00 PM26.0 °F20.0 °F71 %30.33 in5.0 mi°2.2 mphSnowLight Snow
10:20 PM26.6 °F19.4 °F74 %30.21 in5.0 miSE (130°)5.8 mphSnowLight Snow
10:50 PM24.8 °F19.4 °F80 %30.21 in5.0 miSSE (160°)3.5 mphSnowLight Snow
11:20 PM24.8 °F19.4 °F80 %30.21 in6.2 miENE (70°)4.6 mphMostly Cloudy
11:50 PM24.8 °F19.4 °F80 %30.21 in5.0 miNE (50°)5.8 mphScattered Clouds
Hourly data recorded from LOWI, located miles away from Zugspitze, Germany







STORIES FROM OUR PARTNERS